Private Wetterstation Wechselburg
Wetterdaten: Montag, 16.08.2021
Datum Zeit Temp. +2m Bodentemp. Temp.+5cm Temp. Wind Windchill X Diff Temp. Feuchte +2m Feuchte +5cm Luftdruck Regen Wind Richtung Richtung Sonnenschein Taupunkt Windchill Windben
16.08.2021 00:00 17,3 C 21,0 C 16,9 C 16,9 C 16,0 C 0,0 C 83 % 85 % 1009,5 hPa 0,0 l/m 0,0 km/h (0 Bft) O-NO 67 0 min 14,4 C 16,0 C 0,0 km/h (0 Bft)
16.08.2021 00:05 17,2 C 21,0 C 16,8 C 16,8 C 15,9 C 0,0 C 82 % 85 % 1009,5 hPa 0,0 l/m 0,0 km/h (0 Bft) O-NO 67 0 min 14,1 C 15,9 C 0,0 km/h (0 Bft)
16.08.2021 00:10 17,0 C 21,0 C 16,7 C 16,5 C 15,6 C 0,0 C 82 % 86 % 1009,5 hPa 0,0 l/m 0,0 km/h (0 Bft) O-NO 67 0 min 13,9 C 15,6 C 0,0 km/h (0 Bft)
16.08.2021 00:15 17,0 C 21,0 C 16,7 C 16,5 C 15,5 C 0,0 C 83 % 86 % 1009,5 hPa 0,0 l/m 0,0 km/h (0 Bft) O-NO 67 0 min 14,1 C 15,5 C 0,0 km/h (0 Bft)
16.08.2021 00:20 16,8 C 21,0 C 16,6 C 16,3 C 15,4 C 0,0 C 83 % 85 % 1009,4 hPa 0,0 l/m 0,0 km/h (0 Bft) O-NO 67 0 min 13,9 C 15,4 C 0,0 km/h (0 Bft)
16.08.2021 00:25 16,9 C 21,0 C 16,5 C 16,4 C 15,3 C 0,0 C 83 % 86 % 1009,4 hPa 0,0 l/m 0,0 km/h (0 Bft) O-NO 67 0 min 14,0 C 15,3 C 0,0 km/h (0 Bft)
16.08.2021 00:30 16,7 C 21,0 C 16,3 C 16,2 C 15,1 C 0,0 C 83 % 86 % 1009,4 hPa 0,0 l/m 0,0 km/h (0 Bft) O-NO 67 0 min 13,8 C 15,1 C 0,0 km/h (0 Bft)
16.08.2021 00:35 16,6 C 21,0 C 16,3 C 16,1 C 15,1 C 0,0 C 83 % 86 % 1009,4 hPa 0,0 l/m 0,0 km/h (0 Bft) O-NO 67 0 min 13,7 C 15,1 C 0,0 km/h (0 Bft)
16.08.2021 00:40 16,5 C 21,0 C 16,2 C 16,0 C 15,1 C 0,0 C 84 % 87 % 1009,2 hPa 0,0 l/m 0,0 km/h (0 Bft) O-NO 67 0 min 13,8 C 15,1 C 0,0 km/h (0 Bft)
16.08.2021 00:45 16,5 C 21,0 C 16,1 C 16,0 C 15,0 C 0,0 C 84 % 87 % 1009,2 hPa 0,0 l/m 0,0 km/h (0 Bft) O-NO 67 0 min 13,8 C 15,0 C 0,0 km/h (0 Bft)
16.08.2021 00:50 16,5 C 21,0 C 16,1 C 16,0 C 15,0 C 0,0 C 84 % 87 % 1009,2 hPa 0,0 l/m 0,0 km/h (0 Bft) O-NO 67 0 min 13,8 C 15,0 C 0,0 km/h (0 Bft)
16.08.2021 00:55 16,4 C 21,0 C 16,1 C 15,9 C 15,0 C 0,0 C 84 % 87 % 1009,2 hPa 0,0 l/m 0,0 km/h (0 Bft) O-NO 67 0 min 13,7 C 15,0 C 0,0 km/h (0 Bft)
16.08.2021 01:00 16,3 C 21,0 C 16,0 C 15,8 C 14,9 C 0,0 C 84 % 87 % 1009,6 hPa 0,0 l/m 0,0 km/h (0 Bft) O-NO 67 0 min 13,6 C 14,9 C 0,0 km/h (0 Bft)
16.08.2021 01:05 16,3 C 21,0 C 15,9 C 15,8 C 14,8 C 0,0 C 85 % 88 % 1009,6 hPa 0,0 l/m 0,0 km/h (0 Bft) O-NO 67 0 min 13,8 C 14,8 C 0,0 km/h (0 Bft)
16.08.2021 01:10 16,1 C 20,9 C 15,9 C 15,7 C 14,8 C 0,0 C 85 % 88 % 1009,6 hPa 0,0 l/m 0,0 km/h (0 Bft) O-NO 67 0 min 13,6 C 14,8 C 0,0 km/h (0 Bft)
16.08.2021 01:15 16,1 C 20,9 C 15,9 C 15,7 C 14,8 C 0,0 C 85 % 88 % 1009,6 hPa 0,0 l/m 0,0 km/h (0 Bft) O-NO 67 0 min 13,6 C 14,8 C 0,0 km/h (0 Bft)
16.08.2021 01:20 16,0 C 20,9 C 15,8 C 15,6 C 14,8 C 0,0 C 85 % 88 % 1009,2 hPa 0,0 l/m 0,0 km/h (0 Bft) O-NO 67 0 min 13,5 C 14,8 C 0,0 km/h (0 Bft)
16.08.2021 01:25 16,1 C 20,9 C 15,8 C 15,6 C 14,7 C 0,0 C 85 % 88 % 1009,2 hPa 0,0 l/m 0,0 km/h (0 Bft) O-NO 67 0 min 13,6 C 14,7 C 0,0 km/h (0 Bft)
16.08.2021 01:30 15,9 C 20,9 C 15,7 C 15,5 C 14,6 C 0,0 C 85 % 88 % 1009,2 hPa 0,0 l/m 0,0 km/h (0 Bft) O-NO 67 0 min 13,4 C 14,6 C 0,0 km/h (0 Bft)
16.08.2021 01:35 15,9 C 20,8 C 15,6 C 15,4 C 14,4 C 0,0 C 85 % 88 % 1009,2 hPa 0,0 l/m 0,0 km/h (0 Bft) O-NO 67 0 min 13,4 C 14,4 C 0,0 km/h (0 Bft)
16.08.2021 01:40 15,9 C 20,8 C 15,5 C 15,4 C 14,4 C 0,0 C 85 % 88 % 1009,1 hPa 0,0 l/m 0,0 km/h (0 Bft) O-NO 67 0 min 13,4 C 14,4 C 0,0 km/h (0 Bft)
16.08.2021 01:45 15,7 C 20,8 C 15,5 C 15,3 C 14,4 C 0,0 C 86 % 88 % 1009,1 hPa 0,0 l/m 0,0 km/h (0 Bft) O-NO 67 0 min 13,4 C 14,4 C 0,0 km/h (0 Bft)
16.08.2021 01:50 15,7 C 20,8 C 15,5 C 15,3 C 14,4 C 0,0 C 86 % 88 % 1009,1 hPa 0,0 l/m 0,0 km/h (0 Bft) O-NO 67 0 min 13,4 C 14,4 C 0,0 km/h (0 Bft)
16.08.2021 01:55 15,7 C 20,8 C 15,4 C 15,2 C 14,2 C 0,0 C 86 % 88 % 1009,1 hPa 0,0 l/m 0,0 km/h (0 Bft) O-NO 67 0 min 13,4 C 14,2 C 0,0 km/h (0 Bft)
16.08.2021 02:00 15,5 C 20,8 C 15,2 C 15,0 C 14,0 C 0,0 C 86 % 88 % 1009,1 hPa 0,0 l/m 0,0 km/h (0 Bft) O-NO 67 0 min 13,2 C 14,0 C 0,0 km/h (0 Bft)
16.08.2021 02:05 15,5 C 20,8 C 15,2 C 15,0 C 14,0 C 0,0 C 86 % 88 % 1009,1 hPa 0,0 l/m 0,0 km/h (0 Bft) O-NO 67 0 min 13,2 C 14,0 C 0,0 km/h (0 Bft)
16.08.2021 02:10 15,3 C 20,8 C 15,1 C 14,8 C 13,9 C 0,0 C 86 % 89 % 1009,1 hPa 0,0 l/m 0,0 km/h (0 Bft) O-NO 67 0 min 13,0 C 13,9 C 0,0 km/h (0 Bft)
16.08.2021 02:15 15,3 C 20,7 C 15,1 C 14,9 C 14,0 C 0,0 C 86 % 89 % 1009,1 hPa 0,0 l/m 0,0 km/h (0 Bft) O-NO 67 0 min 13,0 C 14,0 C 0,0 km/h (0 Bft)
16.08.2021 02:20 15,2 C 20,7 C 15,1 C 14,8 C 14,0 C 0,0 C 86 % 89 % 1009,0 hPa 0,0 l/m 0,0 km/h (0 Bft) O-NO 67 0 min 12,9 C 14,0 C 0,0 km/h (0 Bft)
16.08.2021 02:25 15,2 C 20,7 C 15,1 C 14,9 C 14,2 C 0,0 C 86 % 89 % 1009,0 hPa 0,0 l/m 0,0 km/h (0 Bft) O-NO 67 0 min 12,9 C 14,2 C 0,0 km/h (0 Bft)
16.08.2021 02:30 15,2 C 20,7 C 15,1 C 14,9 C 14,4 C 0,0 C 87 % 89 % 1009,0 hPa 0,0 l/m 0,0 km/h (0 Bft) O-NO 67 0 min 13,0 C 14,4 C 0,0 km/h (0 Bft)
16.08.2021 02:35 15,3 C 20,7 C 15,1 C 15,0 C 14,3 C 0,0 C 87 % 89 % 1009,0 hPa 0,0 l/m 0,0 km/h (0 Bft) O-NO 67 0 min 13,1 C 14,3 C 0,0 km/h (0 Bft)
16.08.2021 02:40 15,2 C 20,7 C 15,1 C 14,9 C 14,3 C 0,0 C 87 % 89 % 1008,7 hPa 0,0 l/m 0,0 km/h (0 Bft) O-NO 67 0 min 13,0 C 14,3 C 0,0 km/h (0 Bft)
16.08.2021 02:45 15,2 C 20,7 C 15,1 C 14,9 C 14,3 C 0,0 C 87 % 89 % 1008,7 hPa 0,0 l/m 0,0 km/h (0 Bft) O-NO 67 0 min 13,0 C 14,3 C 0,0 km/h (0 Bft)
16.08.2021 02:50 15,1 C 20,6 C 15,0 C 14,8 C 14,1 C 0,0 C 87 % 89 % 1008,7 hPa 0,0 l/m 0,0 km/h (0 Bft) O-NO 67 0 min 13,0 C 14,1 C 0,0 km/h (0 Bft)
16.08.2021 02:55 15,0 C 20,6 C 15,0 C 14,7 C 14,1 C 0,0 C 87 % 89 % 1008,7 hPa 0,0 l/m 0,0 km/h (0 Bft) O-NO 67 0 min 12,9 C 14,1 C 0,0 km/h (0 Bft)
16.08.2021 03:00 15,1 C 20,6 C 15,0 C 14,7 C 14,0 C 0,0 C 87 % 89 % 1008,6 hPa 0,0 l/m 0,0 km/h (0 Bft) O-NO 67 0 min 13,0 C 14,0 C 0,0 km/h (0 Bft)
16.08.2021 03:05 14,9 C 20,6 C 14,9 C 14,5 C 13,8 C 0,0 C 87 % 89 % 1008,6 hPa 0,0 l/m 0,0 km/h (0 Bft) O-NO 67 0 min 12,8 C 13,8 C 0,0 km/h (0 Bft)
16.08.2021 03:10 14,9 C 20,6 C 14,9 C 14,5 C 13,8 C 0,0 C 87 % 89 % 1008,6 hPa 0,0 l/m 0,0 km/h (0 Bft) O-NO 67 0 min 12,8 C 13,8 C 0,0 km/h (0 Bft)
16.08.2021 03:15 14,9 C 20,6 C 14,9 C 14,6 C 14,0 C 0,0 C 87 % 90 % 1008,6 hPa 0,0 l/m 0,0 km/h (0 Bft) O-NO 67 0 min 12,8 C 14,0 C 0,0 km/h (0 Bft)
16.08.2021 03:20 14,8 C 20,6 C 14,9 C 14,6 C 14,1 C 0,0 C 87 % 90 % 1008,4 hPa 0,0 l/m 0,0 km/h (0 Bft) O-NO 67 0 min 12,7 C 14,1 C 0,0 km/h (0 Bft)
16.08.2021 03:25 14,8 C 20,6 C 14,9 C 14,6 C 14,2 C 0,0 C 87 % 90 % 1008,4 hPa 0,0 l/m 0,0 km/h (0 Bft) O-NO 67 0 min 12,7 C 14,2 C 0,0 km/h (0 Bft)
16.08.2021 03:30 14,8 C 20,5 C 15,0 C 14,6 C 14,2 C 0,0 C 87 % 90 % 1008,4 hPa 0,0 l/m 0,0 km/h (0 Bft) O-NO 67 0 min 12,7 C 14,2 C 0,0 km/h (0 Bft)
16.08.2021 03:35 14,9 C 20,5 C 14,9 C 14,6 C 14,0 C 0,0 C 87 % 89 % 1008,4 hPa 0,0 l/m 0,0 km/h (0 Bft) O-NO 67 0 min 12,8 C 14,0 C 0,0 km/h (0 Bft)
16.08.2021 03:40 14,8 C 20,5 C 14,8 C 14,5 C 13,8 C 0,0 C 87 % 89 % 1008,2 hPa 0,0 l/m 0,0 km/h (0 Bft) O-NO 67 0 min 12,7 C 13,8 C 0,0 km/h (0 Bft)
16.08.2021 03:45 14,7 C 20,5 C 14,7 C 14,4 C 13,8 C 0,0 C 87 % 90 % 1008,2 hPa 0,0 l/m 0,0 km/h (0 Bft) O-NO 67 0 min 12,6 C 13,8 C 0,0 km/h (0 Bft)
16.08.2021 03:50 14,6 C 20,5 C 14,7 C 14,3 C 13,8 C 0,0 C 87 % 90 % 1008,2 hPa 0,0 l/m 0,0 km/h (0 Bft) O-NO 67 0 min 12,5 C 13,8 C 0,0 km/h (0 Bft)
16.08.2021 03:55 14,7 C 20,5 C 14,7 C 14,4 C 13,8 C 0,0 C 87 % 90 % 1008,2 hPa 0,0 l/m 0,0 km/h (0 Bft) O-NO 67 0 min 12,6 C 13,8 C 0,0 km/h (0 Bft)
16.08.2021 04:00 14,6 C 20,5 C 14,7 C 14,3 C 13,8 C 0,0 C 87 % 90 % 1008,3 hPa 0,0 l/m 0,0 km/h (0 Bft) O-NO 67 0 min 12,5 C 13,8 C 0,0 km/h (0 Bft)
16.08.2021 04:05 14,6 C 20,5 C 14,7 C 14,3 C 13,8 C 0,0 C 87 % 90 % 1008,3 hPa 0,0 l/m 0,0 km/h (0 Bft) O-NO 67 0 min 12,5 C 13,8 C 0,0 km/h (0 Bft)
16.08.2021 04:10 14,5 C 20,4 C 14,7 C 14,3 C 13,8 C 0,0 C 87 % 90 % 1008,3 hPa 0,0 l/m 0,0 km/h (0 Bft) O-NO 67 0 min 12,4 C 13,8 C 0,0 km/h (0 Bft)
16.08.2021 04:15 14,4 C 20,4 C 14,5 C 14,1 C 13,5 C 0,0 C 87 % 89 % 1008,3 hPa 0,0 l/m 0,0 km/h (0 Bft) O-NO 67 0 min 12,3 C 13,5 C 0,0 km/h (0 Bft)
16.08.2021 04:20 14,4 C 20,4 C 14,3 C 14,0 C 13,3 C 0,0 C 87 % 89 % 1008,1 hPa 0,0 l/m 0,0 km/h (0 Bft) O-NO 67 0 min 12,3 C 13,3 C 0,0 km/h (0 Bft)
16.08.2021 04:25 14,2 C 20,4 C 14,3 C 13,9 C 13,3 C 0,0 C 87 % 89 % 1008,1 hPa 0,0 l/m 0,0 km/h (0 Bft) O-NO 67 0 min 12,1 C 13,3 C 0,0 km/h (0 Bft)
16.08.2021 04:30 14,2 C 20,4 C 14,3 C 13,9 C 13,4 C 0,0 C 87 % 90 % 1008,1 hPa 0,0 l/m 0,0 km/h (0 Bft) O-NO 67 0 min 12,1 C 13,4 C 0,0 km/h (0 Bft)
16.08.2021 04:35 14,2 C 20,4 C 14,3 C 13,9 C 13,4 C 0,0 C 87 % 90 % 1008,1 hPa 0,0 l/m 0,0 km/h (0 Bft) O-NO 67 0 min 12,1 C 13,4 C 0,0 km/h (0 Bft)
16.08.2021 04:40 14,1 C 20,4 C 14,3 C 13,8 C 13,2 C 0,0 C 87 % 90 % 1007,8 hPa 0,0 l/m 0,0 km/h (0 Bft) O-NO 67 0 min 12,0 C 13,2 C 0,0 km/h (0 Bft)
16.08.2021 04:45 14,0 C 20,4 C 14,2 C 13,7 C 13,1 C 0,0 C 87 % 90 % 1007,8 hPa 0,0 l/m 0,0 km/h (0 Bft) O-NO 67 0 min 11,9 C 13,1 C 0,0 km/h (0 Bft)
16.08.2021 04:50 14,0 C 20,4 C 14,2 C 13,7 C 13,0 C 0,0 C 87 % 90 % 1007,8 hPa 0,0 l/m 0,0 km/h (0 Bft) O-NO 67 0 min 11,9 C 13,0 C 0,0 km/h (0 Bft)
16.08.2021 04:55 14,0 C 20,4 C 14,1 C 13,7 C 13,0 C 0,0 C 87 % 90 % 1007,8 hPa 0,0 l/m 0,0 km/h (0 Bft) O-NO 67 0 min 11,9 C 13,0 C 0,0 km/h (0 Bft)
16.08.2021 05:00 13,9 C 20,4 C 14,0 C 13,6 C 13,0 C 0,0 C 87 % 90 % 1007,8 hPa 0,0 l/m 0,0 km/h (0 Bft) O-NO 67 0 min 11,8 C 13,0 C 0,0 km/h (0 Bft)
16.08.2021 05:05 13,8 C 20,4 C 14,0 C 13,5 C 13,0 C 0,0 C 87 % 90 % 1007,8 hPa 0,0 l/m 0,0 km/h (0 Bft) O-NO 67 0 min 11,7 C 13,0 C 0,0 km/h (0 Bft)
16.08.2021 05:10 13,9 C 20,3 C 14,0 C 13,6 C 13,1 C 0,0 C 87 % 90 % 1007,8 hPa 0,0 l/m 0,0 km/h (0 Bft) O-NO 67 0 min 11,8 C 13,1 C 0,0 km/h (0 Bft)
16.08.2021 05:15 13,8 C 20,3 C 14,0 C 13,6 C 13,1 C 0,0 C 87 % 90 % 1007,8 hPa 0,0 l/m 0,0 km/h (0 Bft) O-NO 67 0 min 11,7 C 13,1 C 0,0 km/h (0 Bft)
16.08.2021 05:20 13,7 C 20,3 C 14,1 C 13,5 C 13,2 C 0,0 C 87 % 90 % 1007,7 hPa 0,0 l/m 0,0 km/h (0 Bft) O-NO 67 0 min 11,6 C 13,2 C 0,0 km/h (0 Bft)
16.08.2021 05:25 13,7 C 20,3 C 14,1 C 13,6 C 13,3 C 0,0 C 87 % 90 % 1007,7 hPa 0,0 l/m 0,0 km/h (0 Bft) O-NO 67 0 min 11,6 C 13,3 C 0,0 km/h (0 Bft)
16.08.2021 05:30 13,6 C 20,3 C 14,0 C 13,5 C 13,2 C 0,0 C 87 % 90 % 1007,7 hPa 0,0 l/m 0,0 km/h (0 Bft) O-NO 67 0 min 11,5 C 13,2 C 0,0 km/h (0 Bft)
16.08.2021 05:35 13,7 C 20,3 C 14,0 C 13,5 C 13,1 C 0,0 C 87 % 90 % 1007,7 hPa 0,0 l/m 0,0 km/h (0 Bft) O-NO 67 0 min 11,6 C 13,1 C 0,0 km/h (0 Bft)
16.08.2021 05:40 13,6 C 20,3 C 13,9 C 13,4 C 13,0 C 0,0 C 87 % 90 % 1007,6 hPa 0,0 l/m 0,0 km/h (0 Bft) O-NO 67 0 min 11,5 C 13,0 C 0,0 km/h (0 Bft)
16.08.2021 05:45 13,5 C 20,2 C 13,9 C 13,3 C 12,8 C 0,0 C 87 % 90 % 1007,6 hPa 0,0 l/m 0,0 km/h (0 Bft) O-NO 67 0 min 11,4 C 12,8 C 0,0 km/h (0 Bft)
16.08.2021 05:50 13,5 C 20,2 C 13,8 C 13,2 C 12,7 C 0,0 C 87 % 90 % 1007,6 hPa 0,0 l/m 0,0 km/h (0 Bft) O-NO 67 0 min 11,4 C 12,7 C 0,0 km/h (0 Bft)
16.08.2021 05:55 13,5 C 20,2 C 13,8 C 13,3 C 12,8 C 0,0 C 88 % 90 % 1007,6 hPa 0,0 l/m 0,0 km/h (0 Bft) O-NO 67 0 min 11,6 C 12,8 C 0,0 km/h (0 Bft)
16.08.2021 06:00 13,4 C 20,2 C 13,9 C 13,2 C 12,8 C 0,0 C 88 % 90 % 1007,8 hPa 0,0 l/m 0,0 km/h (0 Bft) O-NO 67 0 min 11,5 C 12,8 C 0,0 km/h (0 Bft)
16.08.2021 06:05 13,3 C 20,2 C 13,9 C 13,2 C 13,0 C 0,0 C 88 % 91 % 1007,8 hPa 0,0 l/m 0,0 km/h (0 Bft) O-NO 67 0 min 11,4 C 13,0 C 0,0 km/h (0 Bft)
16.08.2021 06:10 13,3 C 20,2 C 13,9 C 13,2 C 13,0 C 0,0 C 88 % 91 % 1007,8 hPa 0,0 l/m 0,0 km/h (0 Bft) O-NO 67 0 min 11,4 C 13,0 C 0,0 km/h (0 Bft)
16.08.2021 06:15 13,3 C 20,2 C 13,9 C 13,2 C 13,0 C 0,0 C 88 % 90 % 1007,8 hPa 0,0 l/m 0,0 km/h (0 Bft) O-NO 67 0 min 11,4 C 13,0 C 0,0 km/h (0 Bft)
16.08.2021 06:20 13,3 C 20,2 C 13,9 C 13,2 C 13,1 C 0,0 C 88 % 91 % 1007,6 hPa 0,0 l/m 0,0 km/h (0 Bft) O-NO 67 0 min 11,4 C 13,1 C 0,0 km/h (0 Bft)
16.08.2021 06:25 13,2 C 20,1 C 13,9 C 13,2 C 13,2 C 0,0 C 88 % 91 % 1007,6 hPa 0,0 l/m 0,0 km/h (0 Bft) O-NO 67 0 min 11,3 C 13,2 C 0,0 km/h (0 Bft)
16.08.2021 06:30 13,2 C 20,1 C 13,9 C 13,2 C 13,2 C 0,0 C 88 % 91 % 1007,6 hPa 0,0 l/m 0,0 km/h (0 Bft) O-NO 67 0 min 11,3 C 13,2 C 0,0 km/h (0 Bft)
16.08.2021 06:35 13,2 C 20,1 C 13,9 C 13,2 C 13,2 C 0,0 C 88 % 91 % 1007,6 hPa 0,0 l/m 0,0 km/h (0 Bft) O-NO 67 0 min 11,3 C 13,2 C 0,0 km/h (0 Bft)
16.08.2021 06:40 13,2 C 20,1 C 14,0 C 13,2 C 13,2 C 0,0 C 88 % 91 % 1007,6 hPa 0,0 l/m 0,0 km/h (0 Bft) O-NO 67 0 min 11,3 C 13,2 C 0,0 km/h (0 Bft)
16.08.2021 06:45 13,2 C 20,1 C 14,0 C 13,3 C 13,3 C 0,1 C 88 % 91 % 1007,6 hPa 0,0 l/m 0,0 km/h (0 Bft) O-NO 67 0 min 11,3 C 13,3 C 0,0 km/h (0 Bft)
16.08.2021 06:50 13,3 C 20,1 C 14,1 C 13,5 C 13,5 C 0,2 C 88 % 91 % 1007,6 hPa 0,0 l/m 0,0 km/h (0 Bft) O-NO 67 0 min 11,4 C 13,5 C 0,0 km/h (0 Bft)
16.08.2021 06:55 13,2 C 20,1 C 14,3 C 13,7 C 13,7 C 0,5 C 88 % 91 % 1007,6 hPa 0,0 l/m 0,0 km/h (0 Bft) O-NO 67 0 min 11,3 C 13,7 C 0,0 km/h (0 Bft)
16.08.2021 07:00 13,2 C 20,1 C 14,5 C 13,8 C 13,8 C 0,6 C 88 % 91 % 1007,5 hPa 0,0 l/m 0,0 km/h (0 Bft) O-NO 67 0 min 11,3 C 13,8 C 0,0 km/h (0 Bft)
16.08.2021 07:05 13,2 C 20,0 C 14,6 C 13,9 C 13,9 C 0,7 C 88 % 91 % 1007,5 hPa 0,0 l/m 0,0 km/h (0 Bft) O-NO 67 0 min 11,3 C 13,9 C 0,0 km/h (0 Bft)
16.08.2021 07:10 13,3 C 20,0 C 15,1 C 14,8 C 14,8 C 1,5 C 88 % 91 % 1007,5 hPa 0,0 l/m 0,0 km/h (0 Bft) O-NO 67 0 min 11,4 C 14,8 C 0,0 km/h (0 Bft)
16.08.2021 07:15 13,3 C 20,0 C 15,5 C 16,3 C 16,3 C 3,0 C 88 % 90 % 1007,5 hPa 0,0 l/m 0,0 km/h (0 Bft) O-NO 67 5 min 11,4 C 16,3 C 0,0 km/h (0 Bft)
16.08.2021 07:20 13,5 C 20,0 C 16,0 C 18,7 C 18,7 C 5,2 C 88 % 91 % 1007,5 hPa 0,0 l/m 0,0 km/h (0 Bft) O-NO 67 5 min 11,6 C 18,7 C 0,0 km/h (0 Bft)
16.08.2021 07:25 13,6 C 19,9 C 16,1 C 19,4 C 19,4 C 5,8 C 87 % 91 % 1007,5 hPa 0,0 l/m 0,0 km/h (0 Bft) O-NO 67 5 min 11,5 C 19,4 C 0,0 km/h (0 Bft)
16.08.2021 07:30 14,0 C 19,9 C 16,3 C 18,5 C 18,5 C 4,5 C 88 % 90 % 1007,5 hPa 0,0 l/m 0,0 km/h (0 Bft) O-NO 67 5 min 12,0 C 18,5 C 0,0 km/h (0 Bft)
16.08.2021 07:35 14,2 C 19,9 C 16,3 C 18,2 C 18,2 C 4,0 C 88 % 91 % 1007,5 hPa 0,0 l/m 0,0 km/h (0 Bft) O-NO 67 5 min 12,2 C 18,2 C 0,0 km/h (0 Bft)
16.08.2021 07:40 14,6 C 19,9 C 16,7 C 18,1 C 18,1 C 3,5 C 88 % 90 % 1007,4 hPa 0,0 l/m 0,0 km/h (0 Bft) O-NO 67 5 min 12,6 C 18,1 C 2,7 km/h (1 Bft)
16.08.2021 07:45 14,8 C 19,8 C 16,9 C 18,6 C 18,6 C 3,8 C 88 % 90 % 1007,4 hPa 0,0 l/m 0,0 km/h (0 Bft) W 270 5 min 12,8 C 18,6 C 0,0 km/h (0 Bft)
16.08.2021 07:50 15,2 C 19,7 C 17,5 C 20,7 C 20,7 C 5,5 C 88 % 90 % 1007,4 hPa 0,0 l/m 0,0 km/h (0 Bft) W 270 5 min 13,2 C 20,7 C 0,0 km/h (0 Bft)
16.08.2021 07:55 15,6 C 19,8 C 17,7 C 21,9 C 21,9 C 6,3 C 88 % 90 % 1007,4 hPa 0,0 l/m 0,0 km/h (0 Bft) W 270 5 min 13,6 C 21,9 C 0,0 km/h (0 Bft)
16.08.2021 08:00 15,9 C 19,7 C 17,7 C 21,7 C 21,7 C 5,8 C 88 % 89 % 1007,6 hPa 0,0 l/m 0,3 km/h (0 Bft) S 180 5 min 13,9 C 21,7 C 3,9 km/h (1 Bft)
16.08.2021 08:05 15,9 C 19,6 C 17,7 C 21,0 C 21,0 C 5,1 C 88 % 90 % 1007,6 hPa 0,0 l/m 0,5 km/h (0 Bft) SW 225 5 min 13,9 C 21,0 C 0,0 km/h (0 Bft)
16.08.2021 08:10 16,3 C 19,6 C 17,9 C 20,1 C 20,1 C 3,8 C 87 % 90 % 1007,6 hPa 0,0 l/m 1,0 km/h (0 Bft) W-SW 247 5 min 14,1 C 20,1 C 2,4 km/h (1 Bft)
16.08.2021 08:15 16,5 C 19,6 C 17,9 C 19,8 C 19,8 C 3,3 C 87 % 89 % 1007,6 hPa 0,0 l/m 1,1 km/h (1 Bft) SW 225 5 min 14,3 C 19,8 C 2,6 km/h (1 Bft)
16.08.2021 08:20 17,1 C 19,6 C 18,3 C 20,6 C 20,6 C 3,5 C 87 % 89 % 1008,2 hPa 0,0 l/m 1,6 km/h (1 Bft) W-SW 247 5 min 14,9 C 20,6 C 1,9 km/h (1 Bft)
16.08.2021 08:25 17,3 C 19,6 C 18,5 C 21,0 C 21,0 C 3,7 C 87 % 89 % 1008,2 hPa 0,0 l/m 1,3 km/h (1 Bft) W 270 5 min 15,1 C 21,0 C 0,0 km/h (0 Bft)
16.08.2021 08:30 17,9 C 19,6 C 18,7 C 21,9 C 21,9 C 4,0 C 87 % 88 % 1008,2 hPa 0,0 l/m 0,8 km/h (0 Bft) SW 225 5 min 15,7 C 21,9 C 6,3 km/h (2 Bft)
16.08.2021 08:35 18,2 C 19,6 C 18,7 C 21,6 C 21,6 C 3,4 C 87 % 88 % 1008,2 hPa 0,0 l/m 0,8 km/h (0 Bft) O-SO 112 5 min 16,0 C 21,6 C 1,9 km/h (1 Bft)
16.08.2021 08:40 18,9 C 19,6 C 19,1 C 24,6 C 24,6 C 5,7 C 87 % 88 % 1007,9 hPa 0,0 l/m 1,0 km/h (0 Bft) W-SW 247 5 min 16,7 C 24,6 C 1,6 km/h (1 Bft)
16.08.2021 08:45 19,6 C 19,6 C 19,3 C 26,3 C 26,3 C 6,7 C 87 % 88 % 1007,9 hPa 0,0 l/m 1,1 km/h (1 Bft) SW 225 5 min 17,4 C 26,3 C 2,9 km/h (1 Bft)
16.08.2021 08:50 20,7 C 19,6 C 19,6 C 27,3 C 27,3 C 6,6 C 86 % 87 % 1007,9 hPa 0,0 l/m 1,4 km/h (1 Bft) SW 225 5 min 18,3 C 27,3 C 2,9 km/h (1 Bft)
16.08.2021 08:55 21,3 C 19,5 C 19,7 C 28,0 C 28,0 C 6,7 C 86 % 86 % 1007,9 hPa 0,0 l/m 1,3 km/h (1 Bft) NO 45 5 min 18,9 C 28,0 C 3,1 km/h (1 Bft)
16.08.2021 09:00 21,7 C 19,5 C 19,9 C 28,9 C 28,9 C 7,2 C 85 % 86 % 1008,0 hPa 0,0 l/m 0,6 km/h (0 Bft) S 180 5 min 19,1 C 28,9 C 2,1 km/h (1 Bft)
16.08.2021 09:05 21,8 C 19,5 C 20,1 C 29,2 C 29,2 C 7,4 C 83 % 86 % 1008,0 hPa 0,0 l/m 0,8 km/h (0 Bft) S 180 5 min 18,8 C 29,2 C 0,0 km/h (0 Bft)
16.08.2021 09:10 22,0 C 19,5 C 20,3 C 29,2 C 29,2 C 7,2 C 81 % 85 % 1008,0 hPa 0,0 l/m 1,3 km/h (1 Bft) SW 225 5 min 18,6 C 29,2 C 0,0 km/h (0 Bft)
16.08.2021 09:15 22,1 C 19,5 C 20,4 C 28,3 C 28,3 C 6,2 C 81 % 85 % 1008,0 hPa 0,0 l/m 1,4 km/h (1 Bft) SW 225 5 min 18,7 C 28,3 C 2,7 km/h (1 Bft)
16.08.2021 09:20 22,1 C 19,5 C 20,7 C 26,2 C 26,2 C 4,1 C 79 % 84 % 1007,9 hPa 0,0 l/m 1,9 km/h (1 Bft) SW 225 5 min 18,3 C 26,2 C 3,4 km/h (1 Bft)
16.08.2021 09:25 22,1 C 19,5 C 20,8 C 25,7 C 25,7 C 3,6 C 79 % 83 % 1007,9 hPa 0,0 l/m 2,7 km/h (1 Bft) SW 225 5 min 18,3 C 25,7 C 8,4 km/h (2 Bft)
16.08.2021 09:30 22,1 C 19,5 C 21,0 C 25,0 C 25,0 C 2,9 C 78 % 82 % 1007,9 hPa 0,0 l/m 2,4 km/h (1 Bft) SW 225 0 min 18,1 C 25,0 C 2,1 km/h (1 Bft)
16.08.2021 09:35 22,1 C 19,5 C 21,0 C 24,8 C 24,8 C 2,7 C 78 % 82 % 1007,9 hPa 0,0 l/m 2,4 km/h (1 Bft) SW 225 0 min 18,1 C 24,8 C 5,1 km/h (1 Bft)
16.08.2021 09:40 22,1 C 19,5 C 21,1 C 24,4 C 24,4 C 2,3 C 77 % 81 % 1008,1 hPa 0,0 l/m 2,4 km/h (1 Bft) SW 225 0 min 17,9 C 24,4 C 2,1 km/h (1 Bft)
16.08.2021 09:45 22,1 C 19,5 C 21,1 C 24,3 C 24,3 C 2,2 C 77 % 81 % 1008,1 hPa 0,0 l/m 2,1 km/h (1 Bft) SW 225 0 min 17,9 C 24,3 C 2,7 km/h (1 Bft)
16.08.2021 09:50 22,3 C 19,5 C 21,2 C 24,2 C 24,2 C 1,9 C 77 % 81 % 1008,1 hPa 0,0 l/m 1,1 km/h (1 Bft) SW 225 0 min 18,1 C 24,2 C 2,4 km/h (1 Bft)
16.08.2021 09:55 22,2 C 19,5 C 21,3 C 24,3 C 24,3 C 2,1 C 77 % 80 % 1008,1 hPa 0,0 l/m 1,1 km/h (1 Bft) S-SW 202 0 min 18,0 C 24,3 C 2,7 km/h (1 Bft)
16.08.2021 10:00 22,3 C 19,5 C 21,5 C 24,6 C 24,6 C 2,3 C 75 % 79 % 1008,3 hPa 0,0 l/m 1,1 km/h (1 Bft) SW 225 0 min 17,6 C 24,6 C 8,5 km/h (2 Bft)
16.08.2021 10:05 22,4 C 19,5 C 21,6 C 24,8 C 24,8 C 2,4 C 74 % 77 % 1008,3 hPa 0,0 l/m 1,9 km/h (1 Bft) SW 225 0 min 17,5 C 24,8 C 2,9 km/h (1 Bft)
16.08.2021 10:10 22,5 C 19,5 C 21,5 C 24,6 C 24,6 C 2,1 C 72 % 76 % 1008,3 hPa 0,0 l/m 2,4 km/h (1 Bft) SW 225 0 min 17,2 C 24,6 C 3,7 km/h (1 Bft)
16.08.2021 10:15 22,4 C 19,5 C 21,5 C 24,6 C 24,6 C 2,2 C 71 % 75 % 1008,3 hPa 0,0 l/m 2,6 km/h (1 Bft) SW 225 0 min 16,9 C 24,6 C 4,8 km/h (1 Bft)
16.08.2021 10:20 22,4 C 19,5 C 21,6 C 24,7 C 24,7 C 2,3 C 69 % 73 % 1008,4 hPa 0,0 l/m 3,1 km/h (1 Bft) S 180 0 min 16,4 C 24,7 C 7,7 km/h (2 Bft)
16.08.2021 10:25 22,4 C 19,5 C 21,6 C 24,8 C 24,8 C 2,4 C 69 % 73 % 1008,4 hPa 0,0 l/m 3,2 km/h (1 Bft) S 180 0 min 16,4 C 24,8 C 3,5 km/h (1 Bft)
16.08.2021 10:30 22,5 C 19,5 C 21,6 C 24,8 C 24,8 C 2,3 C 69 % 73 % 1008,4 hPa 0,0 l/m 2,4 km/h (1 Bft) SW 225 0 min 16,5 C 24,8 C 1,9 km/h (1 Bft)
16.08.2021 10:35 22,7 C 19,5 C 21,7 C 24,9 C 24,9 C 2,2 C 68 % 72 % 1008,4 hPa 0,0 l/m 1,8 km/h (1 Bft) S 180 0 min 16,5 C 24,9 C 2,7 km/h (1 Bft)
16.08.2021 10:40 22,7 C 19,5 C 21,9 C 25,5 C 25,5 C 2,8 C 67 % 72 % 1008,7 hPa 0,0 l/m 2,3 km/h (1 Bft) SW 225 0 min 16,2 C 25,5 C 4,0 km/h (1 Bft)
16.08.2021 10:45 22,8 C 19,5 C 22,0 C 25,6 C 25,6 C 2,8 C 67 % 70 % 1008,7 hPa 0,0 l/m 3,1 km/h (1 Bft) W-SW 247 0 min 16,3 C 25,6 C 6,9 km/h (2 Bft)
16.08.2021 10:50 22,7 C 19,5 C 21,9 C 25,2 C 25,2 C 2,5 C 66 % 70 % 1008,7 hPa 0,0 l/m 3,2 km/h (1 Bft) W-SW 247 0 min 16,0 C 25,2 C 8,7 km/h (2 Bft)
16.08.2021 10:55 22,7 C 19,6 C 21,9 C 25,0 C 25,0 C 2,3 C 66 % 70 % 1008,7 hPa 0,0 l/m 3,1 km/h (1 Bft) SW 225 0 min 16,0 C 25,0 C 3,7 km/h (1 Bft)
16.08.2021 11:00 22,9 C 19,6 C 22,1 C 25,2 C 25,2 C 2,3 C 66 % 69 % 1008,4 hPa 0,0 l/m 2,9 km/h (1 Bft) W-SW 247 0 min 16,2 C 25,2 C 2,6 km/h (1 Bft)
16.08.2021 11:05 23,0 C 19,6 C 22,4 C 25,7 C 25,7 C 2,7 C 66 % 69 % 1008,4 hPa 0,0 l/m 3,7 km/h (1 Bft) S-SW 202 0 min 16,3 C 25,7 C 5,3 km/h (1 Bft)
16.08.2021 11:10 23,1 C 19,6 C 22,4 C 25,5 C 25,5 C 2,4 C 65 % 69 % 1008,4 hPa 0,0 l/m 3,9 km/h (1 Bft) S 180 0 min 16,2 C 25,5 C 2,9 km/h (1 Bft)
16.08.2021 11:15 23,0 C 19,6 C 22,4 C 25,5 C 25,5 C 2,5 C 65 % 69 % 1008,4 hPa 0,0 l/m 3,5 km/h (1 Bft) SW 225 0 min 16,1 C 25,5 C 4,2 km/h (1 Bft)
16.08.2021 11:20 23,1 C 19,6 C 22,4 C 25,4 C 25,4 C 2,3 C 65 % 68 % 1008,2 hPa 0,0 l/m 2,9 km/h (1 Bft) SW 225 0 min 16,2 C 25,4 C 6,4 km/h (2 Bft)
16.08.2021 11:25 23,1 C 19,6 C 22,4 C 25,3 C 25,3 C 2,2 C 64 % 68 % 1008,2 hPa 0,0 l/m 3,2 km/h (1 Bft) W-SW 247 0 min 15,9 C 25,3 C 2,9 km/h (1 Bft)
16.08.2021 11:30 23,1 C 19,6 C 22,4 C 25,2 C 25,2 C 2,1 C 63 % 66 % 1008,2 hPa 0,0 l/m 4,5 km/h (1 Bft) S 180 0 min 15,7 C 25,2 C 15,1 km/h (3 Bft)
16.08.2021 11:35 23,1 C 19,6 C 22,5 C 25,0 C 25,0 C 1,9 C 63 % 66 % 1008,2 hPa 0,0 l/m 4,8 km/h (1 Bft) O-SO 112 0 min 15,7 C 25,0 C 5,3 km/h (1 Bft)
16.08.2021 11:40 23,3 C 19,6 C 22,9 C 25,1 C 25,1 C 1,8 C 63 % 65 % 1008,2 hPa 0,0 l/m 4,2 km/h (1 Bft) SW 225 0 min 15,9 C 25,1 C 3,5 km/h (1 Bft)
16.08.2021 11:45 23,5 C 19,6 C 22,9 C 25,2 C 25,2 C 1,7 C 62 % 63 % 1008,2 hPa 0,0 l/m 4,8 km/h (1 Bft) W 270 0 min 15,8 C 25,2 C 6,9 km/h (2 Bft)
16.08.2021 11:50 23,5 C 19,6 C 23,0 C 25,0 C 25,0 C 1,5 C 60 % 62 % 1008,2 hPa 0,0 l/m 5,8 km/h (2 Bft) S-SO 157 0 min 15,3 C 25,0 C 15,3 km/h (3 Bft)
16.08.2021 11:55 23,5 C 19,6 C 23,2 C 25,0 C 25,0 C 1,5 C 60 % 62 % 1008,2 hPa 0,0 l/m 5,6 km/h (1 Bft) SW 225 0 min 15,3 C 25,0 C 4,2 km/h (1 Bft)
16.08.2021 12:00 23,8 C 19,6 C 23,5 C 25,3 C 25,3 C 1,5 C 57 % 59 % 1008,2 hPa 0,0 l/m 5,5 km/h (1 Bft) S 180 0 min 14,8 C 25,3 C 6,8 km/h (2 Bft)
16.08.2021 12:05 23,9 C 19,6 C 23,6 C 25,4 C 25,4 C 1,5 C 56 % 57 % 1008,2 hPa 0,0 l/m 5,5 km/h (1 Bft) SW 225 0 min 14,6 C 25,4 C 9,8 km/h (2 Bft)
16.08.2021 12:10 24,1 C 19,6 C 23,7 C 25,4 C 25,4 C 1,3 C 55 % 56 % 1008,2 hPa 0,0 l/m 6,9 km/h (2 Bft) S 180 0 min 14,5 C 25,4 C 17,2 km/h (3 Bft)
16.08.2021 12:15 24,3 C 19,6 C 24,0 C 25,8 C 25,8 C 1,5 C 55 % 56 % 1008,2 hPa 0,0 l/m 6,1 km/h (2 Bft) S-SW 202 0 min 14,7 C 25,8 C 9,5 km/h (2 Bft)
16.08.2021 12:20 24,4 C 19,5 C 24,3 C 26,4 C 26,4 C 2,0 C 53 % 53 % 1008,4 hPa 0,0 l/m 6,6 km/h (2 Bft) W-SW 247 0 min 14,2 C 26,4 C 7,1 km/h (2 Bft)
16.08.2021 12:25 24,5 C 19,5 C 24,2 C 26,8 C 26,8 C 2,3 C 53 % 53 % 1008,4 hPa 0,0 l/m 6,9 km/h (2 Bft) W-NW 292 0 min 14,3 C 26,8 C 5,8 km/h (2 Bft)
16.08.2021 12:30 24,5 C 19,6 C 24,2 C 27,0 C 27,0 C 2,5 C 54 % 54 % 1008,4 hPa 0,0 l/m 4,7 km/h (1 Bft) S 180 0 min 14,6 C 27,0 C 6,1 km/h (2 Bft)
16.08.2021 12:35 24,6 C 19,5 C 24,2 C 27,3 C 27,3 C 2,7 C 52 % 52 % 1008,4 hPa 0,0 l/m 5,5 km/h (1 Bft) SW 225 0 min 14,1 C 27,3 C 7,6 km/h (2 Bft)
16.08.2021 12:40 24,5 C 19,5 C 24,3 C 27,6 C 27,6 C 3,1 C 51 % 51 % 1008,5 hPa 0,0 l/m 7,9 km/h (2 Bft) O-NO 67 0 min 13,7 C 27,6 C 24,6 km/h (4 Bft)
16.08.2021 12:45 24,7 C 19,5 C 24,5 C 28,2 C 28,2 C 3,5 C 51 % 51 % 1008,5 hPa 0,0 l/m 7,4 km/h (2 Bft) S 180 5 min 13,9 C 28,2 C 12,9 km/h (3 Bft)
16.08.2021 12:50 24,9 C 19,5 C 24,6 C 29,2 C 29,2 C 4,3 C 51 % 51 % 1008,5 hPa 0,0 l/m 6,4 km/h (2 Bft) SW 225 5 min 14,1 C 29,2 C 10,1 km/h (2 Bft)
16.08.2021 12:55 24,8 C 19,5 C 24,4 C 28,7 C 28,7 C 3,9 C 51 % 52 % 1008,5 hPa 0,0 l/m 6,0 km/h (2 Bft) SW 225 5 min 14,0 C 28,7 C 2,9 km/h (1 Bft)
16.08.2021 13:00 24,5 C 19,6 C 23,7 C 26,9 C 26,9 C 2,4 C 51 % 52 % 1008,8 hPa 0,0 l/m 5,1 km/h (1 Bft) W-SW 247 0 min 13,7 C 26,9 C 8,7 km/h (2 Bft)
16.08.2021 13:05 24,0 C 19,6 C 23,6 C 26,2 C 26,2 C 2,2 C 51 % 52 % 1008,8 hPa 0,0 l/m 5,1 km/h (1 Bft) W 270 0 min 13,2 C 26,2 C 12,9 km/h (3 Bft)
16.08.2021 13:10 24,1 C 19,6 C 23,6 C 26,4 C 26,4 C 2,3 C 51 % 53 % 1008,8 hPa 0,0 l/m 4,7 km/h (1 Bft) S-SW 202 0 min 13,3 C 26,4 C 4,5 km/h (1 Bft)
16.08.2021 13:15 24,1 C 19,6 C 23,8 C 26,8 C 26,8 C 2,7 C 52 % 53 % 1008,8 hPa 0,0 l/m 4,5 km/h (1 Bft) S 180 0 min 13,6 C 26,8 C 2,7 km/h (1 Bft)
16.08.2021 13:20 24,4 C 19,6 C 24,0 C 27,8 C 27,8 C 3,4 C 51 % 52 % 1008,5 hPa 0,0 l/m 5,0 km/h (1 Bft) W-SW 247 5 min 13,6 C 27,8 C 19,3 km/h (3 Bft)
16.08.2021 13:25 24,4 C 19,6 C 24,1 C 27,5 C 27,5 C 3,1 C 51 % 52 % 1008,5 hPa 0,0 l/m 5,6 km/h (1 Bft) N-NW 337 0 min 13,6 C 27,5 C 12,9 km/h (3 Bft)
16.08.2021 13:30 24,3 C 19,6 C 24,1 C 27,2 C 27,2 C 2,9 C 50 % 51 % 1008,5 hPa 0,0 l/m 6,0 km/h (2 Bft) N-NW 337 0 min 13,2 C 27,2 C 2,6 km/h (1 Bft)
16.08.2021 13:35 24,2 C 19,6 C 24,0 C 27,2 C 27,2 C 3,0 C 51 % 51 % 1008,5 hPa 0,0 l/m 4,8 km/h (1 Bft) W-SW 247 0 min 13,4 C 27,2 C 3,4 km/h (1 Bft)
16.08.2021 13:40 24,0 C 19,6 C 23,6 C 26,5 C 26,5 C 2,5 C 50 % 51 % 1008,8 hPa 0,0 l/m 3,9 km/h (1 Bft) S-SW 202 0 min 12,9 C 26,5 C 3,7 km/h (1 Bft)
16.08.2021 13:45 23,9 C 19,6 C 23,6 C 26,2 C 26,2 C 2,3 C 50 % 52 % 1008,8 hPa 0,0 l/m 4,0 km/h (1 Bft) S 180 0 min 12,8 C 26,2 C 2,7 km/h (1 Bft)
16.08.2021 13:50 24,0 C 19,6 C 23,7 C 26,9 C 26,9 C 2,9 C 51 % 52 % 1008,8 hPa 0,0 l/m 4,0 km/h (1 Bft) W 270 0 min 13,2 C 26,9 C 5,5 km/h (1 Bft)
16.08.2021 13:55 23,9 C 19,6 C 23,6 C 26,8 C 26,8 C 2,9 C 50 % 51 % 1008,8 hPa 0,0 l/m 4,2 km/h (1 Bft) S-SO 157 0 min 12,8 C 26,8 C 6,3 km/h (2 Bft)
16.08.2021 14:00 23,6 C 19,6 C 23,5 C 26,2 C 26,2 C 2,6 C 50 % 52 % 1008,8 hPa 0,0 l/m 3,9 km/h (1 Bft) S-SW 202 0 min 12,6 C 26,2 C 3,9 km/h (1 Bft)
16.08.2021 14:05 23,6 C 19,6 C 23,4 C 26,4 C 26,4 C 2,8 C 51 % 51 % 1008,8 hPa 0,0 l/m 3,9 km/h (1 Bft) SW 225 0 min 12,9 C 26,4 C 6,9 km/h (2 Bft)
16.08.2021 14:10 23,4 C 19,6 C 23,3 C 26,0 C 26,0 C 2,6 C 51 % 51 % 1008,8 hPa 0,0 l/m 4,7 km/h (1 Bft) SW 225 0 min 12,7 C 26,0 C 6,0 km/h (2 Bft)
16.08.2021 14:15 23,5 C 19,6 C 23,6 C 26,2 C 26,2 C 2,7 C 51 % 52 % 1008,8 hPa 0,0 l/m 4,5 km/h (1 Bft) S 180 0 min 12,8 C 26,2 C 7,4 km/h (2 Bft)
16.08.2021 14:20 23,5 C 19,6 C 23,4 C 26,2 C 26,2 C 2,7 C 50 % 51 % 1009,0 hPa 0,0 l/m 5,0 km/h (1 Bft) W-SW 247 0 min 12,5 C 26,2 C 6,4 km/h (2 Bft)
16.08.2021 14:25 23,3 C 19,6 C 23,1 C 25,5 C 25,5 C 2,2 C 51 % 51 % 1009,0 hPa 0,0 l/m 5,5 km/h (1 Bft) W-SW 247 0 min 12,6 C 25,5 C 5,0 km/h (1 Bft)
16.08.2021 14:30 23,2 C 19,6 C 22,9 C 25,1 C 25,1 C 1,9 C 51 % 52 % 1009,0 hPa 0,0 l/m 4,5 km/h (1 Bft) W-SW 247 0 min 12,5 C 25,1 C 1,8 km/h (1 Bft)
16.08.2021 14:35 23,2 C 19,6 C 23,0 C 25,3 C 25,3 C 2,1 C 52 % 53 % 1009,0 hPa 0,0 l/m 3,7 km/h (1 Bft) W-SW 247 0 min 12,8 C 25,3 C 4,8 km/h (1 Bft)
16.08.2021 14:40 23,4 C 19,6 C 23,3 C 26,4 C 26,4 C 3,0 C 52 % 53 % 1008,4 hPa 0,0 l/m 3,1 km/h (1 Bft) SW 225 0 min 13,0 C 26,4 C 3,9 km/h (1 Bft)
16.08.2021 14:45 23,4 C 19,6 C 23,5 C 26,9 C 26,9 C 3,5 C 51 % 52 % 1008,4 hPa 0,0 l/m 4,0 km/h (1 Bft) S-SW 202 5 min 12,7 C 26,9 C 6,4 km/h (2 Bft)
16.08.2021 14:50 23,6 C 19,6 C 23,6 C 27,7 C 27,7 C 4,1 C 51 % 52 % 1008,4 hPa 0,0 l/m 4,3 km/h (1 Bft) SW 225 5 min 12,9 C 27,7 C 7,4 km/h (2 Bft)
16.08.2021 14:55 23,5 C 19,6 C 23,4 C 27,1 C 27,1 C 3,6 C 50 % 50 % 1008,4 hPa 0,0 l/m 5,0 km/h (1 Bft) W 270 5 min 12,5 C 27,1 C 6,1 km/h (2 Bft)
16.08.2021 15:00 23,2 C 19,6 C 23,1 C 26,1 C 26,1 C 2,9 C 50 % 50 % 1009,1 hPa 0,0 l/m 4,8 km/h (1 Bft) SW 225 0 min 12,2 C 26,1 C 4,8 km/h (1 Bft)
16.08.2021 15:05 23,3 C 19,6 C 22,9 C 25,7 C 25,7 C 2,4 C 50 % 51 % 1009,1 hPa 0,0 l/m 4,2 km/h (1 Bft) SW 225 0 min 12,3 C 25,7 C 4,8 km/h (1 Bft)
16.08.2021 15:10 23,0 C 19,6 C 22,7 C 24,9 C 24,9 C 1,9 C 50 % 51 % 1009,1 hPa 0,0 l/m 4,2 km/h (1 Bft) W-SW 247 0 min 12,0 C 24,9 C 4,5 km/h (1 Bft)
16.08.2021 15:15 22,9 C 19,6 C 22,8 C 24,6 C 24,6 C 1,7 C 50 % 52 % 1009,1 hPa 0,0 l/m 4,2 km/h (1 Bft) W-NW 292 0 min 11,9 C 24,6 C 5,8 km/h (2 Bft)
16.08.2021 15:20 23,1 C 19,6 C 22,9 C 25,4 C 25,4 C 2,3 C 50 % 51 % 1009,0 hPa 0,0 l/m 4,7 km/h (1 Bft) W 270 0 min 12,1 C 25,4 C 4,8 km/h (1 Bft)
16.08.2021 15:25 23,0 C 19,6 C 22,9 C 25,3 C 25,3 C 2,3 C 50 % 51 % 1009,0 hPa 0,0 l/m 4,5 km/h (1 Bft) W 270 0 min 12,0 C 25,3 C 5,6 km/h (1 Bft)
16.08.2021 15:30 23,0 C 19,6 C 23,0 C 25,7 C 25,7 C 2,7 C 50 % 51 % 1009,0 hPa 0,0 l/m 4,3 km/h (1 Bft) S-SW 202 0 min 12,0 C 25,7 C 5,3 km/h (1 Bft)
16.08.2021 15:35 23,1 C 19,6 C 23,2 C 26,2 C 26,2 C 3,1 C 51 % 51 % 1009,0 hPa 0,0 l/m 4,3 km/h (1 Bft) SW 225 0 min 12,4 C 26,2 C 9,0 km/h (2 Bft)
16.08.2021 15:40 23,2 C 19,6 C 23,3 C 26,4 C 26,4 C 3,2 C 50 % 50 % 1009,2 hPa 0,0 l/m 4,8 km/h (1 Bft) S 180 0 min 12,2 C 26,4 C 6,1 km/h (2 Bft)
16.08.2021 15:45 23,2 C 19,6 C 23,4 C 26,8 C 26,8 C 3,6 C 50 % 50 % 1009,2 hPa 0,0 l/m 4,8 km/h (1 Bft) SW 225 5 min 12,2 C 26,8 C 3,7 km/h (1 Bft)
16.08.2021 15:50 23,2 C 19,6 C 23,2 C 26,4 C 26,4 C 3,2 C 50 % 50 % 1009,2 hPa 0,0 l/m 4,5 km/h (1 Bft) W-SW 247 0 min 12,2 C 26,4 C 5,8 km/h (2 Bft)
16.08.2021 15:55 23,1 C 19,6 C 23,3 C 26,0 C 26,0 C 2,9 C 51 % 51 % 1009,2 hPa 0,0 l/m 4,0 km/h (1 Bft) SO 135 0 min 12,4 C 26,0 C 4,3 km/h (1 Bft)
16.08.2021 16:00 23,1 C 19,6 C 23,5 C 27,0 C 27,0 C 3,9 C 51 % 50 % 1008,8 hPa 0,0 l/m 4,3 km/h (1 Bft) W-NW 292 5 min 12,4 C 27,0 C 5,5 km/h (1 Bft)
16.08.2021 16:05 23,1 C 19,6 C 23,3 C 26,7 C 26,7 C 3,6 C 50 % 49 % 1008,8 hPa 0,0 l/m 5,3 km/h (1 Bft) W-SW 247 5 min 12,1 C 26,7 C 5,0 km/h (1 Bft)
16.08.2021 16:10 22,8 C 19,6 C 22,9 C 25,9 C 25,9 C 3,1 C 50 % 49 % 1008,8 hPa 0,0 l/m 4,8 km/h (1 Bft) SW 225 0 min 11,8 C 25,9 C 9,3 km/h (2 Bft)
16.08.2021 16:15 22,6 C 19,6 C 22,7 C 25,1 C 25,1 C 2,5 C 50 % 49 % 1008,8 hPa 0,0 l/m 4,5 km/h (1 Bft) SW 225 0 min 11,6 C 25,1 C 4,0 km/h (1 Bft)
16.08.2021 16:20 22,5 C 19,6 C 22,5 C 24,4 C 24,4 C 1,9 C 50 % 50 % 1009,6 hPa 0,0 l/m 5,0 km/h (1 Bft) SW 225 0 min 11,5 C 24,4 C 5,1 km/h (1 Bft)
16.08.2021 16:25 22,4 C 19,6 C 22,5 C 24,3 C 24,3 C 1,9 C 50 % 50 % 1009,6 hPa 0,0 l/m 5,0 km/h (1 Bft) SW 225 0 min 11,5 C 24,3 C 4,8 km/h (1 Bft)
16.08.2021 16:30 22,4 C 19,6 C 22,4 C 24,1 C 24,1 C 1,7 C 51 % 50 % 1009,6 hPa 0,0 l/m 4,5 km/h (1 Bft) S-SW 202 0 min 11,8 C 24,1 C 6,6 km/h (2 Bft)
16.08.2021 16:35 22,3 C 19,6 C 22,4 C 24,3 C 24,3 C 2,0 C 50 % 50 % 1009,6 hPa 0,0 l/m 4,3 km/h (1 Bft) S 180 0 min 11,4 C 24,3 C 4,8 km/h (1 Bft)
16.08.2021 16:40 22,3 C 19,6 C 22,3 C 24,1 C 24,1 C 1,8 C 50 % 49 % 1009,2 hPa 0,0 l/m 4,7 km/h (1 Bft) S-SW 202 0 min 11,4 C 24,1 C 5,0 km/h (1 Bft)
16.08.2021 16:45 22,3 C 19,6 C 22,1 C 23,9 C 23,9 C 1,6 C 50 % 50 % 1009,2 hPa 0,0 l/m 4,5 km/h (1 Bft) SW 225 0 min 11,4 C 23,9 C 7,6 km/h (2 Bft)
16.08.2021 16:50 22,2 C 19,6 C 22,1 C 23,8 C 23,8 C 1,6 C 50 % 50 % 1009,2 hPa 0,0 l/m 4,3 km/h (1 Bft) S 180 0 min 11,3 C 23,8 C 4,8 km/h (1 Bft)
16.08.2021 16:55 22,1 C 19,6 C 22,0 C 23,5 C 23,5 C 1,4 C 50 % 49 % 1009,2 hPa 0,0 l/m 4,5 km/h (1 Bft) W-SW 247 0 min 11,2 C 23,5 C 5,8 km/h (2 Bft)
16.08.2021 17:00 22,0 C 19,6 C 21,9 C 23,4 C 23,4 C 1,4 C 50 % 50 % 1009,4 hPa 0,0 l/m 4,5 km/h (1 Bft) S 180 0 min 11,1 C 23,4 C 4,0 km/h (1 Bft)
16.08.2021 17:05 22,1 C 19,6 C 21,9 C 23,4 C 23,4 C 1,3 C 50 % 50 % 1009,4 hPa 0,0 l/m 4,3 km/h (1 Bft) W-SW 247 0 min 11,2 C 23,4 C 7,9 km/h (2 Bft)
16.08.2021 17:10 22,0 C 19,6 C 21,7 C 23,1 C 23,1 C 1,1 C 50 % 49 % 1009,4 hPa 0,0 l/m 4,8 km/h (1 Bft) W-NW 292 0 min 11,1 C 23,1 C 5,5 km/h (1 Bft)
16.08.2021 17:15 21,9 C 19,6 C 21,7 C 23,0 C 23,0 C 1,1 C 50 % 50 % 1009,4 hPa 0,0 l/m 5,0 km/h (1 Bft) W-SW 247 0 min 11,0 C 23,0 C 3,4 km/h (1 Bft)
16.08.2021 17:20 22,0 C 19,6 C 21,8 C 23,1 C 23,1 C 1,1 C 50 % 51 % 1008,5 hPa 0,0 l/m 4,3 km/h (1 Bft) S-SW 202 0 min 11,1 C 23,1 C 2,6 km/h (1 Bft)
16.08.2021 17:25 22,1 C 19,6 C 21,7 C 23,2 C 23,2 C 1,1 C 50 % 51 % 1008,5 hPa 0,0 l/m 3,7 km/h (1 Bft) S 180 0 min 11,2 C 23,2 C 5,6 km/h (1 Bft)
16.08.2021 17:30 22,0 C 19,6 C 21,6 C 23,0 C 23,0 C 1,0 C 50 % 51 % 1008,5 hPa 0,0 l/m 3,5 km/h (1 Bft) S-SW 202 0 min 11,1 C 23,0 C 4,2 km/h (1 Bft)
16.08.2021 17:35 21,9 C 19,6 C 21,5 C 22,7 C 22,7 C 0,8 C 51 % 51 % 1008,5 hPa 0,0 l/m 3,9 km/h (1 Bft) S 180 0 min 11,3 C 22,7 C 1,6 km/h (1 Bft)
16.08.2021 17:40 21,8 C 19,6 C 21,3 C 22,4 C 22,4 C 0,6 C 51 % 52 % 1009,3 hPa 0,0 l/m 3,2 km/h (1 Bft) S 180 0 min 11,2 C 22,4 C 1,9 km/h (1 Bft)
16.08.2021 17:45 21,7 C 19,6 C 21,3 C 22,2 C 22,2 C 0,5 C 51 % 52 % 1009,3 hPa 0,0 l/m 2,9 km/h (1 Bft) W-SW 247 0 min 11,1 C 22,2 C 3,5 km/h (1 Bft)
16.08.2021 17:50 21,7 C 19,6 C 21,2 C 22,2 C 22,2 C 0,5 C 51 % 52 % 1009,3 hPa 0,0 l/m 3,2 km/h (1 Bft) S-SW 202 0 min 11,1 C 22,2 C 4,7 km/h (1 Bft)
16.08.2021 17:55 21,6 C 19,6 C 21,2 C 22,1 C 22,1 C 0,5 C 52 % 53 % 1009,3 hPa 0,0 l/m 3,4 km/h (1 Bft) S 180 0 min 11,3 C 22,1 C 2,6 km/h (1 Bft)
16.08.2021 18:00 21,6 C 19,6 C 21,1 C 22,1 C 22,1 C 0,5 C 52 % 53 % 1009,6 hPa 0,0 l/m 3,2 km/h (1 Bft) SW 225 0 min 11,3 C 22,1 C 6,4 km/h (2 Bft)
16.08.2021 18:05 21,7 C 19,6 C 21,0 C 22,1 C 22,1 C 0,4 C 52 % 53 % 1009,6 hPa 0,0 l/m 2,9 km/h (1 Bft) N-NO 22 0 min 11,4 C 22,1 C 3,4 km/h (1 Bft)
16.08.2021 18:10 21,6 C 19,6 C 21,0 C 21,9 C 21,9 C 0,3 C 52 % 53 % 1009,6 hPa 0,0 l/m 3,2 km/h (1 Bft) SW 225 0 min 11,3 C 21,9 C 3,1 km/h (1 Bft)
16.08.2021 18:15 21,6 C 19,6 C 20,9 C 21,8 C 21,8 C 0,2 C 52 % 53 % 1009,6 hPa 0,0 l/m 2,9 km/h (1 Bft) SW 225 0 min 11,3 C 21,8 C 4,2 km/h (1 Bft)
16.08.2021 18:20 21,5 C 19,6 C 20,8 C 21,6 C 21,6 C 0,1 C 52 % 53 % 1010,2 hPa 0,0 l/m 3,4 km/h (1 Bft) S-SO 157 0 min 11,2 C 21,6 C 4,2 km/h (1 Bft)
16.08.2021 18:25 21,4 C 19,6 C 20,7 C 21,5 C 21,5 C 0,1 C 52 % 54 % 1010,2 hPa 0,0 l/m 3,2 km/h (1 Bft) SW 225 0 min 11,1 C 21,5 C 2,1 km/h (1 Bft)
16.08.2021 18:30 21,5 C 19,6 C 20,7 C 21,5 C 21,4 C 0,0 C 52 % 54 % 1010,2 hPa 0,0 l/m 2,7 km/h (1 Bft) SW 225 0 min 11,2 C 21,4 C 3,7 km/h (1 Bft)
16.08.2021 18:35 21,4 C 19,6 C 20,7 C 21,4 C 21,4 C 0,0 C 52 % 54 % 1010,2 hPa 0,0 l/m 3,1 km/h (1 Bft) S-SW 202 0 min 11,1 C 21,4 C 3,7 km/h (1 Bft)
16.08.2021 18:40 21,3 C 19,6 C 20,7 C 21,4 C 21,4 C 0,1 C 52 % 54 % 1009,9 hPa 0,0 l/m 3,2 km/h (1 Bft) W-SW 247 0 min 11,0 C 21,4 C 4,5 km/h (1 Bft)
16.08.2021 18:45 21,3 C 19,6 C 20,6 C 21,3 C 21,3 C 0,0 C 52 % 54 % 1009,9 hPa 0,0 l/m 3,1 km/h (1 Bft) SW 225 0 min 11,0 C 21,3 C 4,3 km/h (1 Bft)
16.08.2021 18:50 21,2 C 19,5 C 20,6 C 21,2 C 21,2 C 0,0 C 53 % 54 % 1009,9 hPa 0,0 l/m 2,9 km/h (1 Bft) W-SW 247 0 min 11,2 C 21,2 C 2,7 km/h (1 Bft)
16.08.2021 18:55 21,3 C 19,5 C 20,5 C 21,2 C 21,1 C 0,0 C 53 % 54 % 1009,9 hPa 0,0 l/m 2,9 km/h (1 Bft) W 270 0 min 11,3 C 21,1 C 4,0 km/h (1 Bft)
16.08.2021 19:00 21,1 C 19,5 C 20,4 C 21,1 C 21,0 C 0,0 C 53 % 54 % 1009,7 hPa 0,0 l/m 3,1 km/h (1 Bft) NW 315 0 min 11,1 C 21,0 C 6,1 km/h (2 Bft)
16.08.2021 19:05 21,1 C 19,5 C 20,4 C 21,0 C 20,9 C 0,0 C 53 % 54 % 1009,7 hPa 0,0 l/m 3,2 km/h (1 Bft) S-SW 202 0 min 11,1 C 20,9 C 3,2 km/h (1 Bft)
16.08.2021 19:10 21,0 C 19,5 C 20,3 C 20,9 C 20,7 C 0,0 C 54 % 55 % 1009,7 hPa 0,0 l/m 2,7 km/h (1 Bft) S 180 0 min 11,3 C 20,7 C 2,3 km/h (1 Bft)
16.08.2021 19:15 20,9 C 19,5 C 20,2 C 20,8 C 20,7 C 0,0 C 54 % 55 % 1009,7 hPa 0,0 l/m 2,4 km/h (1 Bft) SW 225 0 min 11,2 C 20,7 C 2,6 km/h (1 Bft)
16.08.2021 19:20 20,9 C 19,5 C 20,1 C 20,8 C 20,6 C 0,0 C 54 % 56 % 1009,8 hPa 0,0 l/m 2,3 km/h (1 Bft) SW 225 0 min 11,2 C 20,6 C 2,7 km/h (1 Bft)
16.08.2021 19:25 20,8 C 19,5 C 20,1 C 20,7 C 20,5 C 0,0 C 55 % 56 % 1009,8 hPa 0,0 l/m 2,4 km/h (1 Bft) W-SW 247 0 min 11,4 C 20,5 C 2,9 km/h (1 Bft)
16.08.2021 19:30 20,5 C 19,6 C 19,8 C 20,4 C 20,1 C 0,0 C 59 % 62 % 1009,8 hPa 0,0 l/m 4,2 km/h (1 Bft) W-SW 247 0 min 12,2 C 20,1 C 6,4 km/h (2 Bft)
16.08.2021 19:35 19,8 C 19,6 C 19,1 C 19,5 C 19,0 C 0,0 C 62 % 65 % 1009,8 hPa 0,0 l/m 4,3 km/h (1 Bft) S 180 0 min 12,3 C 19,0 C 4,5 km/h (1 Bft)
16.08.2021 19:40 18,8 C 19,6 C 18,5 C 18,5 C 18,0 C 0,0 C 65 % 67 % 1010,6 hPa 0,0 l/m 4,2 km/h (1 Bft) NW 315 0 min 12,1 C 18,0 C 6,1 km/h (2 Bft)
16.08.2021 19:45 18,4 C 19,7 C 18,2 C 18,1 C 17,6 C 0,0 C 66 % 68 % 1010,6 hPa 0,0 l/m 4,2 km/h (1 Bft) S 180 0 min 11,9 C 17,6 C 3,7 km/h (1 Bft)
16.08.2021 19:50 18,1 C 19,7 C 17,9 C 17,8 C 17,3 C 0,0 C 67 % 69 % 1010,6 hPa 0,0 l/m 3,5 km/h (1 Bft) W 270 0 min 11,9 C 17,3 C 4,7 km/h (1 Bft)
16.08.2021 19:55 17,9 C 19,7 C 17,7 C 17,7 C 17,2 C 0,0 C 68 % 69 % 1010,6 hPa 0,0 l/m 3,5 km/h (1 Bft) W-SW 247 0 min 11,9 C 17,2 C 3,2 km/h (1 Bft)
16.08.2021 20:00 17,5 C 19,6 C 17,5 C 17,3 C 17,0 C 0,0 C 68 % 69 % 1010,9 hPa 0,0 l/m 4,2 km/h (1 Bft) S-SW 202 0 min 11,5 C 17,0 C 3,1 km/h (1 Bft)
16.08.2021 20:05 17,3 C 19,6 C 17,3 C 17,1 C 16,8 C 0,0 C 68 % 69 % 1010,9 hPa 0,0 l/m 5,1 km/h (1 Bft) W 270 0 min 11,3 C 16,8 C 20,8 km/h (4 Bft)
16.08.2021 20:10 17,1 C 19,6 C 17,1 C 16,9 C 16,6 C 0,0 C 69 % 69 % 1010,9 hPa 0,0 l/m 5,1 km/h (1 Bft) S 180 0 min 11,4 C 16,6 C 4,2 km/h (1 Bft)
16.08.2021 20:15 16,8 C 19,6 C 16,9 C 16,7 C 16,4 C 0,0 C 69 % 70 % 1010,9 hPa 0,0 l/m 4,7 km/h (1 Bft) S-SW 202 0 min 11,1 C 16,4 C 4,3 km/h (1 Bft)
16.08.2021 20:20 16,6 C 19,6 C 16,7 C 16,5 C 16,2 C 0,0 C 70 % 71 % 1011,4 hPa 0,0 l/m 3,9 km/h (1 Bft) W-SW 247 0 min 11,1 C 16,2 C 6,0 km/h (2 Bft)
16.08.2021 20:25 16,5 C 19,6 C 16,6 C 16,4 C 16,1 C 0,0 C 71 % 72 % 1011,4 hPa 0,0 l/m 4,0 km/h (1 Bft) SW 225 0 min 11,2 C 16,1 C 9,0 km/h (2 Bft)
16.08.2021 20:30 16,3 C 19,6 C 16,3 C 16,2 C 15,9 C 0,0 C 72 % 72 % 1011,4 hPa 0,0 l/m 4,2 km/h (1 Bft) W-SW 247 0 min 11,2 C 15,9 C 5,3 km/h (1 Bft)
16.08.2021 20:35 16,0 C 19,6 C 16,1 C 15,9 C 15,6 C 0,0 C 72 % 73 % 1011,4 hPa 0,0 l/m 4,2 km/h (1 Bft) W 270 0 min 11,0 C 15,6 C 6,3 km/h (2 Bft)
16.08.2021 20:40 15,6 C 19,7 C 15,7 C 15,3 C 14,8 C 0,0 C 73 % 75 % 1011,5 hPa 0,0 l/m 4,2 km/h (1 Bft) W-SW 247 0 min 10,8 C 14,8 C 3,7 km/h (1 Bft)
16.08.2021 20:45 15,3 C 19,9 C 15,5 C 14,9 C 14,0 C 0,0 C 75 % 77 % 1011,5 hPa 0,0 l/m 3,7 km/h (1 Bft) W-SW 247 0 min 10,9 C 14,0 C 10,1 km/h (2 Bft)
16.08.2021 20:50 14,9 C 19,9 C 15,0 C 14,4 C 13,3 C 0,0 C 77 % 78 % 1011,5 hPa 0,0 l/m 2,9 km/h (1 Bft) S 180 0 min 10,9 C 13,3 C 0,0 km/h (0 Bft)
16.08.2021 20:55 14,5 C 19,9 C 14,7 C 14,0 C 13,1 C 0,0 C 78 % 80 % 1011,5 hPa 0,0 l/m 2,9 km/h (1 Bft) SW 225 0 min 10,7 C 13,1 C 2,7 km/h (1 Bft)
16.08.2021 21:00 14,2 C 19,9 C 14,4 C 13,8 C 12,9 C 0,0 C 79 % 81 % 1012,1 hPa 0,0 l/m 1,6 km/h (1 Bft) S-SW 202 0 min 10,6 C 12,9 C 2,7 km/h (1 Bft)
16.08.2021 21:05 14,0 C 19,9 C 14,2 C 13,6 C 12,8 C 0,0 C 80 % 82 % 1012,1 hPa 0,0 l/m 1,0 km/h (0 Bft) SW 225 0 min 10,6 C 12,8 C 0,0 km/h (0 Bft)
16.08.2021 21:10 13,9 C 19,9 C 13,9 C 13,5 C 12,7 C 0,0 C 81 % 83 % 1012,1 hPa 0,0 l/m 0,8 km/h (0 Bft) W-SW 247 0 min 10,7 C 12,7 C 0,0 km/h (0 Bft)
16.08.2021 21:15 13,7 C 19,9 C 13,8 C 13,4 C 12,7 C 0,0 C 81 % 84 % 1012,1 hPa 0,0 l/m 0,6 km/h (0 Bft) SW 225 0 min 10,5 C 12,7 C 0,0 km/h (0 Bft)
16.08.2021 21:20 13,6 C 19,9 C 13,7 C 13,3 C 12,7 C 0,0 C 82 % 85 % 1012,8 hPa 0,7 l/m 0,2 km/h (0 Bft) W-SW 247 0 min 10,6 C 12,7 C 0,0 km/h (0 Bft)
16.08.2021 21:25 13,7 C 19,9 C 13,7 C 13,4 C 12,7 C 0,0 C 82 % 86 % 1012,8 hPa 0,0 l/m 0,0 km/h (0 Bft) W-SW 247 0 min 10,7 C 12,7 C 0,0 km/h (0 Bft)
16.08.2021 21:30 13,6 C 19,8 C 13,5 C 13,3 C 12,7 C 0,0 C 83 % 86 % 1012,8 hPa 0,0 l/m 0,0 km/h (0 Bft) SW 225 0 min 10,8 C 12,7 C 0,0 km/h (0 Bft)
16.08.2021 21:35 13,5 C 19,8 C 13,5 C 13,2 C 12,7 C 0,0 C 84 % 87 % 1012,8 hPa 0,7 l/m 0,0 km/h (0 Bft) W-SW 247 0 min 10,8 C 12,7 C 1,8 km/h (1 Bft)
16.08.2021 21:40 13,5 C 19,8 C 13,4 C 13,2 C 12,7 C 0,0 C 84 % 87 % 1013,1 hPa 0,0 l/m 0,2 km/h (0 Bft) SW 225 0 min 10,8 C 12,7 C 0,0 km/h (0 Bft)
16.08.2021 21:45 13,5 C 19,8 C 13,3 C 13,3 C 12,8 C 0,0 C 85 % 88 % 1013,1 hPa 0,7 l/m 0,2 km/h (0 Bft) SW 225 0 min 11,0 C 12,8 C 0,0 km/h (0 Bft)
16.08.2021 21:50 13,5 C 19,8 C 13,3 C 13,3 C 12,8 C 0,0 C 85 % 89 % 1013,1 hPa 0,0 l/m 1,0 km/h (0 Bft) SW 225 0 min 11,0 C 12,8 C 2,9 km/h (1 Bft)
16.08.2021 21:55 13,3 C 19,8 C 13,2 C 13,1 C 12,8 C 0,0 C 85 % 89 % 1013,1 hPa 0,7 l/m 1,1 km/h (1 Bft) SW 225 0 min 10,8 C 12,8 C 1,6 km/h (1 Bft)
16.08.2021 22:00 13,3 C 19,8 C 13,1 C 13,1 C 12,8 C 0,0 C 85 % 90 % 1013,4 hPa 0,0 l/m 1,3 km/h (1 Bft) S-SW 202 0 min 10,8 C 12,8 C 2,9 km/h (1 Bft)
16.08.2021 22:05 13,2 C 19,8 C 13,1 C 13,0 C 12,7 C 0,0 C 86 % 90 % 1013,4 hPa 0,0 l/m 1,3 km/h (1 Bft) SW 225 0 min 10,9 C 12,7 C 3,7 km/h (1 Bft)
16.08.2021 22:10 13,2 C 19,8 C 13,0 C 13,0 C 12,6 C 0,0 C 86 % 90 % 1013,4 hPa 0,0 l/m 1,6 km/h (1 Bft) SW 225 0 min 10,9 C 12,6 C 3,2 km/h (1 Bft)
16.08.2021 22:15 13,1 C 19,7 C 12,9 C 12,9 C 12,6 C 0,0 C 86 % 90 % 1013,4 hPa 0,0 l/m 1,8 km/h (1 Bft) W-SW 247 0 min 10,8 C 12,6 C 1,8 km/h (1 Bft)
16.08.2021 22:20 13,1 C 19,7 C 12,8 C 12,9 C 12,4 C 0,0 C 86 % 90 % 1013,3 hPa 0,0 l/m 1,6 km/h (1 Bft) SW 225 0 min 10,8 C 12,4 C 0,0 km/h (0 Bft)
16.08.2021 22:25 12,9 C 19,7 C 12,8 C 12,7 C 12,4 C 0,0 C 86 % 91 % 1013,3 hPa 0,0 l/m 1,3 km/h (1 Bft) SW 225 0 min 10,6 C 12,4 C 0,0 km/h (0 Bft)
16.08.2021 22:30 12,9 C 19,7 C 12,7 C 12,7 C 12,3 C 0,0 C 86 % 90 % 1013,3 hPa 0,7 l/m 1,8 km/h (1 Bft) SW 225 0 min 10,6 C 12,3 C 2,6 km/h (1 Bft)
16.08.2021 22:35 12,7 C 19,7 C 12,5 C 12,5 C 12,2 C 0,0 C 86 % 90 % 1013,3 hPa 0,0 l/m 2,3 km/h (1 Bft) SW 225 0 min 10,4 C 12,2 C 2,7 km/h (1 Bft)
16.08.2021 22:40 12,7 C 19,6 C 12,5 C 12,5 C 12,0 C 0,0 C 86 % 90 % 1013,6 hPa 0,0 l/m 1,8 km/h (1 Bft) N 360 0 min 10,4 C 12,0 C 2,1 km/h (1 Bft)
16.08.2021 22:45 12,6 C 19,6 C 12,4 C 12,4 C 12,0 C 0,0 C 86 % 90 % 1013,6 hPa 0,0 l/m 1,4 km/h (1 Bft) SW 225 0 min 10,3 C 12,0 C 2,4 km/h (1 Bft)
16.08.2021 22:50 12,5 C 19,6 C 12,5 C 12,3 C 12,0 C 0,0 C 87 % 90 % 1013,6 hPa 0,0 l/m 1,0 km/h (0 Bft) SW 225 0 min 10,4 C 12,0 C 0,0 km/h (0 Bft)
16.08.2021 22:55 12,5 C 19,6 C 12,5 C 12,3 C 12,0 C 0,0 C 87 % 91 % 1013,6 hPa 0,7 l/m 0,6 km/h (0 Bft) S 180 0 min 10,4 C 12,0 C 0,0 km/h (0 Bft)
16.08.2021 23:00 12,5 C 19,6 C 12,5 C 12,3 C 12,0 C 0,0 C 87 % 91 % 1013,4 hPa 0,0 l/m 0,2 km/h (0 Bft) S-SW 202 0 min 10,4 C 12,0 C 0,0 km/h (0 Bft)
16.08.2021 23:05 12,5 C 19,6 C 12,5 C 12,3 C 12,0 C 0,0 C 87 % 91 % 1013,4 hPa 0,0 l/m 0,5 km/h (0 Bft) SW 225 0 min 10,4 C 12,0 C 0,0 km/h (0 Bft)
16.08.2021 23:10 12,4 C 19,5 C 12,4 C 12,3 C 12,0 C 0,0 C 87 % 91 % 1013,4 hPa 0,0 l/m 0,5 km/h (0 Bft) SW 225 0 min 10,3 C 12,0 C 0,0 km/h (0 Bft)
16.08.2021 23:15 12,4 C 19,5 C 12,3 C 12,2 C 11,9 C 0,0 C 87 % 91 % 1013,4 hPa 0,0 l/m 0,5 km/h (0 Bft) SW 225 0 min 10,3 C 11,9 C 0,0 km/h (0 Bft)
16.08.2021 23:20 12,3 C 19,5 C 12,2 C 12,1 C 11,8 C 0,0 C 87 % 91 % 1012,6 hPa 0,0 l/m 0,8 km/h (0 Bft) SW 225 0 min 10,2 C 11,8 C 0,0 km/h (0 Bft)
16.08.2021 23:25 12,3 C 19,5 C 12,2 C 12,1 C 11,7 C 0,0 C 87 % 91 % 1012,6 hPa 0,0 l/m 0,8 km/h (0 Bft) S-SW 202 0 min 10,2 C 11,7 C 0,0 km/h (0 Bft)
16.08.2021 23:30 12,1 C 19,5 C 12,1 C 12,0 C 11,7 C 0,0 C 87 % 91 % 1012,6 hPa 0,7 l/m 0,2 km/h (0 Bft) SO 135 0 min 10,0 C 11,7 C 0,0 km/h (0 Bft)
16.08.2021 23:35 12,1 C 19,5 C 12,1 C 12,0 C 11,7 C 0,0 C 87 % 91 % 1012,6 hPa 0,0 l/m 0,2 km/h (0 Bft) O 90 0 min 10,0 C 11,7 C 0,0 km/h (0 Bft)
16.08.2021 23:40 12,0 C 19,5 C 12,1 C 11,9 C 11,6 C 0,0 C 87 % 92 % 1014,1 hPa 0,0 l/m 0,0 km/h (0 Bft) S 180 0 min 9,9 C 11,6 C 0,0 km/h (0 Bft)
16.08.2021 23:45 12,1 C 19,5 C 12,1 C 11,9 C 11,6 C 0,0 C 87 % 92 % 1014,1 hPa 0,0 l/m 0,0 km/h (0 Bft) SO 135 0 min 10,0 C 11,6 C 0,0 km/h (0 Bft)
16.08.2021 23:50 12,0 C 19,5 C 11,9 C 11,8 C 11,5 C 0,0 C 87 % 92 % 1014,1 hPa 0,0 l/m 0,2 km/h (0 Bft) S 180 0 min 9,9 C 11,5 C 0,0 km/h (0 Bft)
16.08.2021 23:55 11,9 C 19,5 C 11,9 C 11,7 C 11,4 C 0,0 C 87 % 92 % 1014,1 hPa 0,0 l/m 0,2 km/h (0 Bft) S-SW 202 0 min 9,8 C 11,4 C 1,8 km/h (1 Bft)
_ Min-Zeit 23:55 08:55 23:50 23:55 23:55 00:00 13:30 16:05 07:40 - 00:00 - - - 23:55 23:55 00:00
Minimum _ 11,9 C 19,5 C 11,9 C 11,7 C 11,4 C 0,0 C 50 % 49 % 1007,4 hPa - 0,0 km/h (0 Bft) - - - 9,8 C 11,4 C 0,0 km/h (0 Bft)
_ Max-Zeit 12:50 00:00 12:50 09:05 09:05 09:05 05:55 23:40 23:40 21:20 12:40 - - 07:15 09:00 09:05 12:40
Maximum _ 24,9 C 21,0 C 24,6 C 29,2 C 29,2 C 7,4 C 88 % 92 % 1014,1 hPa 0,7 l/m 7,9 km/h
O-NO (2 Bft)
- - 5 min 19,1 C 29,2 C 24,6 km/h
O-NO (4 Bft)
Durchschnitt _ 18,3 C 19,9 C 18,2 C 19,5 C 19,2 C 1,3 C 72 % 74 % 1009,3 hPa #4,8 l/m 2,1 km/h (1 Bft) SW - #3:05 h 12,8 C 19,2 C 3,0 km/h (1 Bft)
2021 www.wetterstation-wechselburg.de